Location: Asheville, NC
(35.6000°N, 82.5500°W)
Time: 12:56:19
(UTC-05:00)

OTV 5 (USA 277) - Pass Details

Date: 15 December 2017
Orbit: 404 x 417 km, 43.0° (Epoch: 07 September)

Event Time Altitude Azimuth Distance (km) Brightness Sun altitude
Rises 19:44:24 0° 278° (W) 2,348 ? -28.8°
Reaches altitude 10° 19:47:29 10° 248° (WSW) 1,481 ? -29.4°
Enters shadow 19:48:37 12° 228° (SW) 1,350 ? -29.6°
